This demonstration page uses our WeatherBlox Daily Observations layout. Learn more.

Left ArrowRight Arrow

Hourly Observations for September 24, 2020

Temp ( °F °C ) Dew Point ( °F °C ) Humidity (%) Winds ( mph kmh ) Pressure ( in mb ) Visibility ( mi km ) Precip ( " mm )
12:59 am 00:59 Mostly Cloudy 60 15.6 55 12.8 84 84 Calm 30.02 1017 10 16 0.00 0.00
1:59 am 01:59 Mostly Cloudy 61 16.1 56 13.3 84 84 SSW 3 6 30.02 1017 10 16 0.00 0.00
2:59 am 02:59 Mostly Cloudy 60 15.6 56 13.3 86 86 SSW 3 6 30.01 1016 10 16 0.00 0.00
3:59 am 03:59 Mostly Cloudy 60 15.6 56 13.3 86 86 Calm 30.01 1016 9 14 0.00 0.00
4:59 am 04:59 Mostly Cloudy 60 15.6 56 13.3 86 86 Calm 30.01 1016 9 14 0.00 0.00
5:59 am 05:59 Cloudy 61 16.1 57 13.9 87 87 SW 5 7 30.03 1017 10 16 0.00 0.00
6:59 am 06:59 Cloudy 61 16.1 56 13.3 84 84 Calm 30.04 1017 10 16 0.00 0.00
7:59 am 07:59 Mostly Cloudy 63 17.2 57 13.9 81 81 SSW 5 7 30.05 1018 8 13 0.00 0.00
8:59 am 08:59 Mostly Cloudy 65 18.3 57 13.9 76 76 Calm 30.06 1018 10 16 0.00 0.00
9:59 am 09:59 Mostly Cloudy 65 18.3 57 13.9 76 76 Calm 30.08 1019 10 16 0.00 0.00
10:59 am 10:59 Cloudy 68 20 57 13.9 68 68 VRB 3 6 30.08 1019 10 16 0.00 0.00
11:59 am 11:59 Cloudy 69 20.6 57 13.9 66 66 SW 5 7 30.07 1018 10 16 0.00 0.00
12:59 pm 12:59 Cloudy 71 21.7 57 13.9 61 61 WSW 3 6 30.06 1018 10 16 0.00 0.00
1:59 pm 13:59 Cloudy 71 21.7 56 13.3 59 59 WSW 6 9 30.06 1018 10 16 0.00 0.00
2:59 pm 14:59 Cloudy 70 21.1 56 13.3 61 61 WSW 5 7 30.06 1018 10 16 0.00 0.00
3:59 pm 15:59 Cloudy with Light Rain 68 20 58 14.4 70 70 S 3 6 30.05 1018 7 11 0.00 0.00
4:59 pm 16:59 Cloudy 68 20 60 15.6 76 76 SSW 6 9 30.06 1018 10 16 0.00 0.00
5:59 pm 17:59 Cloudy 67 19.4 58 14.4 73 73 S 6 9 30.06 1018 10 16 0.00 0.00
6:59 pm 18:59 Cloudy 67 19.4 59 15 76 76 SW 3 6 30.08 1019 8 13 0.00 0.00
7:59 pm 19:59 Cloudy 65 18.3 60 15.6 84 84 SW 3 6 30.08 1019 10 16 0.00 0.00
8:59 pm 20:59 Cloudy 66 18.9 59 15 78 78 SSW 7 11 30.10 1019 10 16 0.00 0.00
9:59 pm 21:59 Cloudy 66 18.9 58 14.4 75 75 S 6 9 30.09 1019 10 16 0.00 0.00
10:59 pm 22:59 Cloudy 67 19.4 58 14.4 73 73 SSW 5 7 30.09 1019 10 16 0.00 0.00
11:59 pm 23:59 Cloudy 65 18.3 59 15 81 81 Calm 30.10 1019 10 16 0.00 0.00

Powered by AerisWeather